FW2294 Weather Reports


Display with metric or nautical units.
time (UTC)temp
F
wind
direction
speed
MPH
gust
MPH
rain 1hr
in
rain 24hr
in
rain mn
in
humidity
%
barometer
mb
20190418202703 56 222 0.0 2.0 0.00 0.00 0.00 91 1012.8
20190418202203 57 203 1.0 2.0 0.00 0.00 0.00 91 1012.8
20190418201649 57 210 0.0 2.0 0.00 0.00 0.00 91 1012.9
20190418201139 56 181 0.0 2.0 0.00 0.00 0.00 91 1012.9
20190418200623 56 69 1.0 3.0 0.00 0.00 0.00 91 1013.1
20190418200053 56 338 2.0 3.0 0.00 0.00 0.00 91 1013.4
20190418195537 55 273 0.0 3.0 0.00 0.00 0.00 92 1013.5
20190418195030 55 350 2.0 3.0 0.00 0.00 0.00 92 1013.5
20190418194458 55 47 2.0 4.0 0.00 0.00 0.00 92 1013.8
20190418193941 55 283 1.0 4.0 0.00 0.00 0.00 92 1014.2
20190418193429 55 16 3.0 3.0 0.00 0.00 0.00 91 1013.8
20190418192930 56 139 2.0 2.0 0.00 0.00 0.00 90 1014.0
20190418192405 56 201 0.0 2.0 0.00 0.00 0.00 91 1013.8
20190418191846 56 40 1.0 3.0 0.00 0.00 0.00 91 1014.4
20190418191336 56 34 1.0 3.0 0.00 0.00 0.00 92 1014.3
20190418190835 55 201 1.0 3.0 0.00 0.00 0.00 91 1014.4
20190418190324 55 322 1.0 3.0 0.00 0.00 0.00 92 1014.5
20190418185756 55 204 0.0 3.0 0.00 0.00 0.00 91 1014.7
20190418185248 55 182 0.0 3.0 0.00 0.00 0.00 91 1014.9
20190418184739 56 194 0.0 2.0 0.00 0.00 0.00 90 1014.8
20190418184231 55 201 0.0 3.0 0.00 0.00 0.00 89 1015.1
20190418183658 55 194 0.0 3.0 0.00 0.00 0.00 90 1015.0
20190418183146 55 202 1.0 2.0 0.00 0.00 0.00 90 1015.2
20190418182631 55 177 0.0 3.0 0.00 0.00 0.00 90 1015.2
20190418182103 55 199 1.0 3.0 0.00 0.00 0.00 90 1015.5
20190418181604 55 194 2.0 3.0 0.00 0.00 0.00 90 1015.6
20190418181323 55 120 2.0 3.0 0.00 0.00 0.00 89 1015.4
20190418180537 55 164 1.0 2.0 0.00 0.00 0.00 89 1015.4
20190418180024 55 199 0.0 3.0 0.00 0.00 0.00 89 1015.5
20190418175457 55 186 1.0 3.0 0.00 0.00 0.00 88 1015.8
20190418174957 55 196 0.0 3.0 0.00 0.00 0.00 88 1015.7
20190418174429 55 203 1.0 3.0 0.00 0.00 0.00 89 1015.6
20190418173856 54 319 1.0 3.0 0.00 0.00 0.00 89 1015.7
20190418173341 54 199 2.0 3.0 0.00 0.00 0.00 89 1015.7
20190418172830 54 330 3.0 3.0 0.00 0.00 0.00 88 1015.7
20190418172330 54 197 0.0 4.0 0.00 0.00 0.00 88 1015.7
20190418171802 54 219 1.0 7.0 0.00 0.00 0.00 88 1015.8
20190418171248 54 175 4.0 7.0 0.00 0.00 0.00 87 1016.1
20190418170737 54 172 1.0 4.0 0.00 0.00 0.00 87 1016.0
20190418170221 54 159 1.0 4.0 0.00 0.00 0.00 88 1015.9
20190418165725 54 201 1.0 4.0 0.00 0.00 0.00 86 1016.1
20190418165211 54 165 2.0 4.0 0.00 0.00 0.00 87 1016.2
20190418164707 54 202 0.0 4.0 0.00 0.00 0.00 86 1016.3
20190418164145 54 38 1.0 6.0 0.00 0.00 0.00 87 1016.4
20190418163647 54 151 1.0 6.0 0.00 0.00 0.00 86 1016.7
20190418163133 54 185 1.0 4.0 0.00 0.00 0.00 85 1016.7
20190418162621 54 189 4.0 4.0 0.00 0.00 0.00 85 1016.8
20190418162123 54 18 3.0 4.0 0.00 0.00 0.00 85 1016.8
20190418161557 54 193 3.0 4.0 0.00 0.00 0.00 85 1017.1
20190418161057 54 190 0.0 4.0 0.00 0.00 0.00 85 1017.1
20190418160529 54 200 2.0 2.0 0.00 0.00 0.00 83 1017.2
20190418155955 54 196 1.0 2.0 0.00 0.00 0.00 84 1017.5
20190418155440 54 181 2.0 8.0 0.00 0.00 0.00 84 1017.4
20190418154929 54 191 1.0 8.0 0.00 0.00 0.00 84 1017.5
20190418154357 54 192 2.0 4.0 0.00 0.00 0.00 84 1017.5
20190418153846 54 193 1.0 3.0 0.00 0.00 0.00 84 1017.5
20190418153330 54 197 1.0 4.0 0.00 0.00 0.00 83 1017.8
20190418152759 54 186 0.0 6.0 0.00 0.00 0.00 83 1017.9
20190418152247 54 199 0.0 6.0 0.00 0.00 0.00 82 1017.8
20190418151739 54 197 1.0 6.0 0.00 0.00 0.00 83 1017.7
20190418151231 54 191 2.0 6.0 0.00 0.00 0.00 82 1017.8
20190418150731 54 196 0.0 3.0 0.00 0.00 0.00 81 1017.7
20190418150158 54 196 1.0 4.0 0.00 0.00 0.00 82 1017.7
20190418145649 54 188 2.0 7.0 0.00 0.00 0.00 81 1017.8
20190418145151 54 191 2.0 7.0 0.00 0.00 0.00 80 1017.5
20190418144649 54 196 1.0 7.0 0.00 0.00 0.00 80 1017.4
20190418144104 54 184 4.0 7.0 0.00 0.00 0.00 79 1017.5
20190418143556 54 175 3.0 4.0 0.00 0.00 0.00 79 1017.6
20190418143057 54 191 1.0 6.0 0.00 0.00 0.00 78 1017.6
20190418142543 54 188 1.0 6.0 0.00 0.00 0.00 79 1017.9
20190418142032 54 196 2.0 6.0 0.00 0.00 0.00 77 1017.7
20190418141530 54 196 0.0 3.0 0.00 0.00 0.00 77 1017.9
20190418141005 54 197 2.0 3.0 0.00 0.00 0.00 77 1018.0
20190418140505 54 194 2.0 4.0 0.00 0.00 0.00 77 1018.0
20190418135955 54 206 1.0 4.0 0.00 0.00 0.00 76 1018.2
20190418135457 54 192 0.0 3.0 0.00 0.00 0.00 76 1018.0
20190418134942 54 263 1.0 6.0 0.00 0.00 0.00 76 1018.1
20190418134431 53 201 2.0 6.0 0.00 0.00 0.00 74 1018.3
20190418133914 53 194 1.0 6.0 0.00 0.00 0.00 74 1018.0
20190418133405 53 152 2.0 6.0 0.00 0.00 0.00 72 1017.8
20190418132848 53 196 1.0 6.0 0.00 0.00 0.00 72 1018.1
20190418132338 53 194 2.0 6.0 0.00 0.00 0.00 72 1018.0
20190418131837 53 197 3.0 6.0 0.00 0.00 0.00 72 1018.1
20190418131325 53 184 2.0 3.0 0.00 0.00 0.00 72 1017.9
20190418130757 53 199 1.0 3.0 0.00 0.00 0.00 72 1018.2
20190418130248 53 188 1.0 4.0 0.00 0.00 0.00 71 1018.3
20190418125737 53 200 1.0 4.0 0.00 0.00 0.00 71 1018.6
20190418125222 53 212 2.0 3.0 0.00 0.00 0.00 71 1018.4
20190418124707 53 216 1.0 7.0 0.00 0.00 0.00 70 1018.3
20190418124155 53 204 1.0 7.0 0.00 0.00 0.00 71 1018.5
20190418123641 53 196 1.0 6.0 0.00 0.00 0.00 70 1018.4
20190418123131 52 200 1.0 4.0 0.00 0.00 0.00 71 1018.2
20190418122631 52 227 3.0 6.0 0.00 0.00 0.00 70 1018.3
20190418122123 52 199 1.0 6.0 0.00 0.00 0.00 72 1018.5
20190418121605 52 192 1.0 4.0 0.00 0.00 0.00 71 1018.7
20190418121054 52 188 2.0 6.0 0.00 0.00 0.00 71 1018.7
20190418120540 52 199 1.0 6.0 0.00 0.00 0.00 71 1018.9
20190418120025 52 192 0.0 3.0 0.00 0.00 0.00 74 1018.9
20190418115456 52 207 1.0 3.0 0.00 0.00 0.00 72 1018.7
20190418114957 51 202 0.0 4.0 0.00 0.00 0.00 73 1018.8
20190418114440 52 191 1.0 4.0 0.00 0.00 0.00 74 1018.6
20190418113857 51 194 1.0 4.0 0.00 0.00 0.00 73 1018.5
20190418113341 51 193 1.0 4.0 0.00 0.00 0.00 72 1018.8
20190418112830 51 195 1.0 4.0 0.00 0.00 0.00 73 1019.0
20190418112329 51 206 0.0 4.0 0.00 0.00 0.00 73 1019.2
20190418111801 51 214 0.0 2.0 0.00 0.00 0.00 75 1019.0
20190418111248 51 221 1.0 2.0 0.00 0.00 0.00 73 1018.8
20190418110738 50 205 1.0 2.0 0.00 0.00 0.00 75 1018.5
20190418110222 50 206 0.0 2.0 0.00 0.00 0.00 76 1018.6
20190418105724 50 215 0.0 2.0 0.00 0.00 0.00 76 1018.7
20190418105158 50 104 1.0 2.0 0.00 0.00 0.00 75 1018.4
20190418104657 50 195 0.0 2.0 0.00 0.00 0.00 76 1018.6
20190418104129 50 211 0.0 1.0 0.00 0.00 0.00 77 1018.5
20190418103614 50 226 1.0 1.0 0.00 0.00 0.00 77 1018.7
20190418103100 50 226 0.0 1.0 0.00 0.00 0.00 75 1018.6
20190418102548 50 209 0.0 2.0 0.00 0.00 0.00 78 1018.4
20190418102033 50 208 1.0 2.0 0.00 0.00 0.00 76 1018.5
20190418101505 50 202 1.0 2.0 0.00 0.00 0.00 76 1018.5
20190418101006 49 201 1.0 2.0 0.00 0.00 0.00 76 1018.3
20190418100454 49 202 1.0 2.0 0.00 0.00 0.00 76 1018.2
20190418095941 49 203 0.0 1.0 0.00 0.00 0.00 77 1018.1
20190418095424 49 202 0.0 2.0 0.00 0.00 0.00 77 1018.4
20190418094858 49 201 0.0 2.0 0.00 0.00 0.00 76 1018.2
20190418094347 49 203 0.0 2.0 0.00 0.00 0.00 78 1018.3
20190418093835 49 202 1.0 1.0 0.00 0.00 0.00 77 1018.2
20190418093305 49 203 0.0 1.0 0.00 0.00 0.00 77 1018.4
20190418092756 49 202 0.0 2.0 0.00 0.00 0.00 76 1018.4
20190418092255 49 202 0.0 2.0 0.00 0.00 0.00 76 1018.4
20190418091232 48 205 1.0 1.0 0.00 0.00 0.00 74 1018.5
20190418090732 49 205 0.0 1.0 0.00 0.00 0.00 74 1018.4
20190418090200 49 206 0.0 1.0 0.00 0.00 0.00 73 1018.6
20190418085649 49 205 0.0 1.0 0.00 0.00 0.00 73 1018.8
20190418085151 49 205 1.0 1.0 0.00 0.00 0.00 72 1019.0
20190418084635 49 205 0.0 0.0 0.00 0.00 0.00 71 1019.0
20190418084105 49 205 0.0 1.0 0.00 0.00 0.00 71 1019.1
20190418083556 50 206 0.0 1.0 0.00 0.00 0.00 72 1018.9
20190418083054 50 206 0.0 1.0 0.00 0.00 0.00 70 1019.3
20190418082543 50 205 1.0 3.0 0.00 0.00 0.00 70 1019.2
20190418082033 50 205 0.0 3.0 0.00 0.00 0.00 71 1019.1
20190418081515 50 197 2.0 3.0 0.00 0.00 0.00 69 1018.8
20190418081007 50 202 1.0 6.0 0.00 0.00 0.00 70 1019.3
20190418080458 49 229 3.0 6.0 0.00 0.00 0.00 69 1019.2
20190418075930 49 199 0.0 1.0 0.00 0.00 0.00 73 1019.2
20190418075432 49 197 0.0 1.0 0.00 0.00 0.00 75 1019.1
20190418074900 49 197 0.0 1.0 0.00 0.00 0.00 75 1019.1
20190418074349 50 195 0.0 2.0 0.00 0.00 0.00 74 1019.1
20190418073849 50 195 0.0 2.0 0.00 0.00 0.00 72 1019.2
20190418073337 50 196 0.0 1.0 0.00 0.00 0.00 70 1019.1
20190418072822 50 196 1.0 1.0 0.00 0.00 0.00 70 1019.2
20190418072308 51 188 0.0 2.0 0.00 0.00 0.00 71 1019.4
20190418071756 51 188 0.0 3.0 0.00 0.00 0.00 70 1019.4
20190418071247 51 181 1.0 3.0 0.00 0.00 0.00 70 1019.6
20190418070726 51 201 0.0 2.0 0.00 0.00 0.00 70 1019.6
20190418070158 51 207 0.0 3.0 0.00 0.00 0.00 70 1019.7
20190418065631 51 195 0.0 3.0 0.00 0.00 0.00 69 1019.5
20190418065058 51 212 0.0 2.0 0.00 0.00 0.00 68 1019.7
20190418064534 51 221 0.0 2.0 0.00 0.00 0.00 66 1019.6
20190418064006 51 221 0.0 2.0 0.00 0.00 0.00 66 1019.6
20190418063507 51 217 0.0 2.0 0.00 0.00 0.00 65 1019.7
20190418062956 51 205 1.0 6.0 0.00 0.00 0.00 65 1019.6
20190418062458 51 213 0.0 6.0 0.00 0.00 0.00 65 1019.7
20190418061928 51 201 1.0 4.0 0.00 0.00 0.00 64 1019.8
20190418061359 51 222 0.0 3.0 0.00 0.00 0.00 62 1019.9
20190418060858 51 196 2.0 3.0 0.00 0.00 0.00 60 1019.9
20190418060330 51 199 0.0 2.0 0.00 0.00 0.00 58 1019.8
20190418055759 51 196 1.0 6.0 0.00 0.00 0.00 56 1019.6
20190418055232 51 196 1.0 6.0 0.00 0.00 0.00 53 1019.7
20190418054732 51 200 1.0 6.0 0.00 0.00 0.00 52 1019.9
20190418054157 52 198 1.0 2.0 0.00 0.00 0.00 51 1020.1
20190418053700 52 198 0.0 3.0 0.00 0.00 0.00 50 1019.9
20190418053150 52 193 3.0 4.0 0.00 0.00 0.00 48 1020.1
20190418052637 52 224 1.0 3.0 0.00 0.00 0.00 48 1020.1
20190418052105 52 197 0.0 3.0 0.00 0.00 0.00 48 1020.2
20190418051556 52 171 2.0 3.0 0.00 0.00 0.00 46 1020.1
20190418051111 52 212 0.0 4.0 0.00 0.00 0.00 46 1019.9
20190418050541 52 209 1.0 4.0 0.00 0.00 0.00 44 1019.9
20190418050032 53 211 1.0 4.0 0.00 0.00 0.00 44 1020.0
20190418045533 53 196 2.0 7.0 0.00 0.00 0.00 43 1020.3
20190418045006 52 149 5.0 7.0 0.00 0.00 0.00 43 1020.1
20190418044454 52 196 1.0 3.0 0.00 0.00 0.00 44 1020.0
20190418043942 53 209 0.0 1.0 0.00 0.00 0.00 45 1020.2
20190418043430 53 209 0.0 3.0 0.00 0.00 0.00 44 1020.2
20190418042859 53 199 1.0 7.0 0.00 0.00 0.00 44 1020.1
20190418042347 53 196 1.0 2.0 0.00 0.00 0.00 44 1020.0
20190418041832 53 181 0.0 6.0 0.00 0.00 0.00 44 1020.1
20190418041301 53 199 1.0 2.0 0.00 0.00 0.00 44 1020.3
20190418040748 53 197 1.0 2.0 0.00 0.00 0.00 44 1020.4
20190418040232 53 209 0.0 2.0 0.00 0.00 0.00 45 1020.4
20190418035723 53 203 0.0 2.0 0.00 0.00 0.00 44 1020.3
20190418035223 53 226 1.0 2.0 0.00 0.00 0.00 44 1020.6
20190418034708 53 246 0.0 2.0 0.00 0.00 0.00 45 1020.4
20190418034159 53 207 1.0 6.0 0.00 0.00 0.00 45 1020.3
20190418033643 53 220 3.0 6.0 0.00 0.00 0.00 44 1020.1
20190418033130 53 233 1.0 3.0 0.00 0.00 0.00 47 1020.4
20190418032559 53 238 2.0 3.0 0.00 0.00 0.00 45 1020.3
20190418032032 53 214 0.0 2.0 0.00 0.00 0.00 47 1020.0
20190418031459 53 202 1.0 2.0 0.00 0.00 0.00 48 1020.0
20190418031000 53 209 0.0 2.0 0.00 0.00 0.00 48 1020.0
20190418030432 53 230 1.0 1.0 0.00 0.00 0.00 48 1020.0
20190418025932 53 212 0.0 1.0 0.00 0.00 0.00 48 1020.1
20190418025406 53 212 1.0 2.0 0.00 0.00 0.00 47 1020.2
20190418024849 53 211 0.0 4.0 0.00 0.00 0.00 50 1020.1
20190418024338 53 202 1.0 2.0 0.00 0.00 0.00 47 1020.2
20190418023838 53 200 2.0 3.0 0.00 0.00 0.00 48 1020.2
20190418023326 53 188 1.0 3.0 0.00 0.00 0.00 49 1020.1
20190418022759 53 232 0.0 3.0 0.00 0.00 0.00 49 1020.2
20190418022259 53 234 0.0 3.0 0.00 0.00 0.00 49 1020.3
20190418021730 53 204 0.0 4.0 0.00 0.00 0.00 49 1020.2
20190418021157 53 204 1.0 4.0 0.00 0.00 0.00 48 1020.3
20190418020643 53 222 1.0 2.0 0.00 0.00 0.00 50 1020.6
20190418020131 53 204 0.0 6.0 0.00 0.00 0.00 51 1020.3
20190418015631 53 201 2.0 6.0 0.00 0.00 0.00 49 1020.4
20190418015123 53 212 0.0 3.0 0.00 0.00 0.00 50 1020.4
20190418014623 53 200 1.0 4.0 0.00 0.00 0.00 50 1020.7
20190418014109 53 200 0.0 4.0 0.00 0.00 0.00 50 1020.7
20190418013556 53 210 0.0 3.0 0.00 0.00 0.00 50 1020.6
20190418013043 53 202 1.0 3.0 0.00 0.00 0.00 51 1020.3
20190418012531 53 207 0.0 1.0 0.00 0.00 0.00 50 1020.4
20190418011959 53 207 0.0 2.0 0.00 0.00 0.00 50 1020.4
20190418011448 53 205 2.0 2.0 0.00 0.00 0.00 49 1020.3
20190418010932 53 204 0.0 3.0 0.00 0.00 0.00 50 1020.3
20190418010401 53 204 0.0 4.0 0.00 0.00 0.00 50 1020.2
20190418005850 53 219 1.0 6.0 0.00 0.00 0.00 49 1019.9
20190418005349 53 184 4.0 6.0 0.00 0.00 0.00 48 1020.1
20190418004837 54 212 1.0 7.0 0.00 0.00 0.00 50 1019.8
20190418004306 54 200 2.0 7.0 0.00 0.00 0.00 49 1019.8
20190418003755 55 191 2.0 4.0 0.00 0.00 0.00 51 1019.4
20190418003256 54 204 1.0 1.0 0.00 0.00 0.00 50 1019.5
20190418002743 55 205 1.0 2.0 0.00 0.00 0.00 50 1019.5
20190418002233 55 206 1.0 3.0 0.00 0.00 0.00 50 1019.3
20190418001732 56 200 1.0 4.0 0.00 0.00 0.00 48 1019.2
20190418001202 55 208 2.0 6.0 0.00 0.00 0.00 48 1019.3
20190418000648 56 207 1.0 8.0 0.00 0.00 0.00 49 1019.1
20190418000135 56 165 4.0 4.0 0.00 0.00 0.00 47 1019.0
20190417235623 56 196 2.0 7.0 0.00 0.00 0.00 49 1018.9
20190417235126 57 215 2.0 7.0 0.00 0.00 0.00 48 1018.9
20190417234600 57 235 1.0 3.0 0.00 0.00 0.00 48 1018.7
20190417234100 57 162 2.0 3.0 0.00 0.00 0.00 49 1018.7
20190417233531 58 203 2.0 3.0 0.00 0.00 0.00 47 1018.4
20190417232957 58 197 1.0 3.0 0.00 0.00 0.00 48 1018.5
20190417232441 58 195 1.0 3.0 0.00 0.00 0.00 47 1018.3
20190417231931 59 205 0.0 7.0 0.00 0.00 0.00 47 1018.4
20190417231400 59 211 1.0 7.0 0.00 0.00 0.00 47 1018.3
20190417230831 60 197 2.0 3.0 0.00 0.00 0.00 49 1018.4
20190417230300 60 202 0.0 2.0 0.00 0.00 0.00 46 1018.2
20190417225733 61 203 0.0 1.0 0.00 0.00 0.00 47 1018.1
20190417225206 61 202 1.0 1.0 0.00 0.00 0.00 45 1018.4
20190417224706 61 197 0.0 2.0 0.00 0.00 0.00 45 1018.1
20190417224158 62 202 0.0 2.0 0.00 0.00 0.00 44 1018.3
20190417223659 62 196 1.0 2.0 0.00 0.00 0.00 42 1018.2
20190417223131 62 203 0.0 2.0 0.00 0.00 0.00 43 1018.0
20190417222633 62 203 1.0 1.0 0.00 0.00 0.00 42 1018.2
20190417222117 62 202 0.0 2.0 0.00 0.00 0.00 41 1018.2
20190417221604 62 202 1.0 2.0 0.00 0.00 0.00 41 1018.1
20190417221050 63 199 0.0 3.0 0.00 0.00 0.00 41 1018.3
20190417220542 63 199 1.0 4.0 0.00 0.00 0.00 41 1018.2
20190417220034 63 219 0.0 4.0 0.00 0.00 0.00 42 1018.1
20190417215501 63 231 1.0 3.0 0.00 0.00 0.00 41 1018.1
20190417214948 63 202 1.0 3.0 0.00 0.00 0.00 42 1018.2
20190417214433 63 192 1.0 3.0 0.00 0.00 0.00 41 1018.1
20190417213906 63 204 1.0 3.0 0.00 0.00 0.00 40 1018.2
20190417213406 63 226 1.0 3.0 0.00 0.00 0.00 40 1018.2
20190417212856 64 213 0.0 3.0 0.00 0.00 0.00 41 1018.1
20190417212342 63 217 0.0 6.0 0.00 0.00 0.00 39 1018.1
20190417211826 64 225 1.0 3.0 0.00 0.00 0.00 39 1018.2
20190417211300 64 250 0.0 4.0 0.00 0.00 0.00 39 1018.1
20190417210800 64 178 2.0 4.0 0.00 0.00 0.00 40 1018.2
20190417210231 64 280 0.0 4.0 0.00 0.00 0.00 42 1018.1
20190417205731 65 254 1.0 4.0 0.00 0.00 0.00 41 1018.2
20190417205201 65 275 0.0 2.0 0.00 0.00 0.00 40 1018.2
20190417204650 64 251 1.0 4.0 0.00 0.00 0.00 39 1018.3
20190417204141 64 218 1.0 4.0 0.00 0.00 0.00 42 1018.3
20190417203634 64 302 1.0 4.0 0.00 0.00 0.00 40 1018.4
20190417203134 64 236 1.0 3.0 0.00 0.00 0.00 41 1018.4